Wisconsin Rapids, WI

6:53 AM CDT on July 28, 2017 (GMT -0500)
Alexander Field South Wood County

Weather History for KISW - December, 2013

Change the Weather History Date:

Monday, December 9, 2013

  Actual Average Record
Temperature  
Mean Temperature 4 °F -  
Max Temperature 12 °F 29 °F 48 °F (1990)
Min Temperature -6 °F 12 °F -13 °F (1958)
Degree Days  
Heating Degree Days 62    
Moisture  
Dew Point 0 °F    
Average Humidity 76    
Maximum Humidity 92    
Minimum Humidity 56    
Precipitation  
Precipitation 0.00 in - - ()
Sea Level Pressure  
Sea Level Pressure 30.02 in    
Wind  
Wind Speed 7 mph (WSW)    
Max Wind Speed 20 mph    
Max Gust Speed 30 mph    
Visibility 7 miles    
Events Snow    
Averages and records for this station are not official NWS values.
T = Trace of Precipitation, MM = Missing Value Source: NWS Daily Summary

Daily Weather History Graph

Daily Weather History Graph

Search for Another Location

Airport or City:

Trip Planner

Search our weather history database for the weather conditions in past years. The results will help you decide how hot, cold, wet, or windy it might be!

Date:

Astronomy

Dec. 09, 2013 Rise Set
Actual Time 7:23 AM CST 4:19 PM CST
Civil Twilight 6:50 AM CST 4:53 PM CST
Nautical Twilight 6:13 AM CST 5:29 PM CST
Astronomical Twilight 5:38 AM CST 6:04 PM CST
Moon 12:03 PM CST (12/9) No Moon Set
Length of Visible Light 10h 02m
Length of Day
8h 56m
Waxing Crescent, 51% of the Moon is Illuminated
Dec 9
Waxing Crescent
Dec 17
Full
Dec 25
Last Quarter
Jan 1
New
Jan 7
First Quarter

Hourly Weather History & Observations

Time (CST) Temp. Windchill Dew Point Humidity Pressure Visibility Wind Dir Wind Speed Gust Speed Precip Events Conditions
12:10 AM 12.2 °F - 8.6 °F 85% 29.96 in 2.0 mi Calm Calm - 0.00 in Snow Light Snow
12:28 AM 12.2 °F - 8.6 °F 85% 29.95 in 4.0 mi Calm Calm - 0.00 in Snow Light Snow
12:54 AM 10.9 °F 4.7 °F 8.1 °F 88% 30.00 in 5.0 mi WNW 3.5 mph - 0.00 in Snow Light Snow
1:54 AM 9.0 °F 2.4 °F 7.0 °F 92% 29.99 in 6.0 mi WNW 3.5 mph - 0.00 in   Overcast
2:54 AM 9.0 °F -0.9 °F 6.1 °F 88% 30.00 in 7.0 mi West 5.8 mph - 0.00 in Snow Light Snow
3:33 AM 8.6 °F 0.1 °F 5.0 °F 85% 29.92 in 9.0 mi West 4.6 mph - 0.00 in   Overcast
3:54 AM 8.1 °F -2.0 °F 5.0 °F 87% 30.00 in 10.0 mi WSW 5.8 mph - 0.00 in   Overcast
4:54 AM 8.1 °F -0.5 °F 5.0 °F 87% 29.99 in 10.0 mi West 4.6 mph - N/A   Overcast
5:54 AM 9.0 °F -0.9 °F 5.0 °F 84% 29.98 in 10.0 mi West 5.8 mph - 0.00 in   Overcast
6:54 AM 9.0 °F -0.9 °F 5.0 °F 84% 29.99 in 8.0 mi West 5.8 mph - 0.00 in   Overcast
7:54 AM 7.0 °F -4.5 °F 3.9 °F 87% 30.02 in 9.0 mi WSW 6.9 mph - N/A   Partly Cloudy
8:05 AM 8.6 °F -2.6 °F 5.0 °F 85% 29.95 in 10.0 mi WSW 6.9 mph - N/A   Mostly Cloudy
8:44 AM 8.6 °F -4.7 °F 5.0 °F 85% 29.96 in 2.0 mi West 9.2 mph - 0.00 in Snow Light Snow
8:54 AM 9.0 °F -4.2 °F 5.0 °F 84% 30.03 in 2.0 mi West 9.2 mph - 0.00 in Snow Light Snow
9:32 AM 10.4 °F -4.8 °F 5.0 °F 79% 29.96 in 5.0 mi WSW 12.7 mph - 0.00 in   Haze
9:48 AM 10.4 °F -4.8 °F 5.0 °F 79% 29.95 in 2.5 mi West 12.7 mph 24.2 mph 0.00 in Snow Light Snow
9:54 AM 10.0 °F -5.9 °F 5.0 °F 80% 30.02 in 1.8 mi West 13.8 mph 24.2 mph 0.00 in Snow Light Snow
10:03 AM 10.4 °F -6.0 °F 5.0 °F 79% 29.96 in 2.0 mi West 15.0 mph 18.4 mph 0.00 in Snow Light Snow
10:15 AM 10.4 °F -4.1 °F 5.0 °F 79% 29.95 in 4.0 mi West 11.5 mph - 0.00 in Snow Light Snow
10:54 AM 12.0 °F -1.3 °F 6.1 °F 77% 30.01 in 3.0 mi WSW 10.4 mph - 0.00 in Snow Light Snow
11:32 AM 10.4 °F -4.1 °F 3.2 °F 73% 29.94 in 1.8 mi West 11.5 mph 25.3 mph 0.00 in Snow Light Snow
11:54 AM 10.0 °F -7.1 °F 1.9 °F 70% 30.01 in 3.0 mi West 16.1 mph 26.5 mph 0.00 in Snow Light Snow
12:08 PM 10.4 °F -6.6 °F -0.4 °F 62% 29.95 in 10.0 mi WSW 16.1 mph 23.0 mph 0.00 in   Scattered Clouds
12:21 PM 8.6 °F -7.7 °F -0.4 °F 67% 29.95 in 6.0 mi West 13.8 mph 25.3 mph 0.00 in   Mostly Cloudy
12:54 PM 8.1 °F -9.6 °F -2.0 °F 64% 30.03 in 8.0 mi West 16.1 mph 29.9 mph 0.00 in   Scattered Clouds
1:51 PM 6.8 °F -12.9 °F -5.8 °F 56% 29.98 in 10.0 mi WSW 19.6 mph 27.6 mph N/A   Mostly Cloudy
1:54 PM 6.1 °F -13.8 °F -5.1 °F 60% 30.05 in 10.0 mi West 19.6 mph 27.6 mph N/A   Mostly Cloudy
2:16 PM 6.8 °F -12.4 °F -5.8 °F 56% 29.99 in 10.0 mi WSW 18.4 mph 25.3 mph N/A   Scattered Clouds
2:54 PM 5.0 °F -14.2 °F -7.1 °F 58% 30.08 in 10.0 mi WSW 17.3 mph 26.5 mph N/A   Clear
3:54 PM 3.0 °F -14.8 °F -9.0 °F 57% 30.12 in 10.0 mi West 13.8 mph 21.9 mph N/A   Clear
4:54 PM 1.0 °F -11.7 °F -9.0 °F 63% 30.14 in 10.0 mi West 6.9 mph 17.3 mph N/A   Clear
5:54 PM -0.9 °F -15.3 °F -9.9 °F 66% 30.16 in 10.0 mi WSW 8.1 mph - N/A   Clear
6:54 PM -0.9 °F -15.3 °F -9.0 °F 69% 30.17 in 10.0 mi WSW 8.1 mph - N/A   Clear
7:54 PM -2.0 °F -13.9 °F -9.0 °F 72% 30.19 in 10.0 mi WSW 5.8 mph - N/A   Clear
8:54 PM -4.0 °F -19.0 °F -9.9 °F 76% 30.16 in 10.0 mi SW 8.1 mph - N/A   Clear
9:54 PM -4.0 °F -20.2 °F -9.9 °F 76% 30.16 in 10.0 mi SW 9.2 mph - N/A   Clear
10:54 PM -5.1 °F -19.1 °F -9.9 °F 80% 30.16 in 10.0 mi SW 6.9 mph - N/A   Clear
11:54 PM -6.0 °F -18.6 °F -11.0 °F 79% 30.12 in 10.0 mi SSW 5.8 mph - N/A   Partly Cloudy